User: anonymous   Login
Location: Unspecified
(0.0000°N, 0.0000°E)
Time: 07:46:01
(UTC+00:00)
Language:

STARLINK-30839 - Orbit

View from above orbital plane
View from above orbital plane
View from above satellite
View from above satellite

Ground track
Ground track

The orbit is defined by the following mean orbital elements,

1 58209U          26145.39128644 +.00000000 +00000-0 +70236-4 0 00004
2 58209  43.0031 120.7414 0000767 280.9588  79.1177 15.27572696    08
Epoch (UTC): 25 May 2026 09:23:27
Eccentricity: 0.0000767
inclination: 43.0031°
perigee height: 483 km
apogee height: 484 km
right ascension of ascending node: 120.7414°
argument of perigee: 280.9588°
revolutions per day: 15.27572696
mean anomaly at epoch: 79.1177°

The dashed part of the orbit path shows where the satellite is in the earth's shadow,  

DLR